Location: Erdweis
(48.5167°N, 15.3500°E)
Time: 10:06:32
(UTC+00:00)

X-37B - Pass Details

Date: 02 December 2020
Orbit: 384 x 390 km, 45.0° (Epoch: 02 January)

Event Time Altitude Azimuth Distance (km) Brightness Sun altitude
Rises 16:26:27 0° 245° (WSW) 2,259 6.5 -12.9°
Reaches altitude 10° 16:28:35 10° 237° (WSW) 1,408 4.7 -13.2°
Maximum altitude 16:31:32 36° 168° (SSE) 632 1.7 -13.7°
Enters shadow 16:33:08 21° 114° (ESE) 931 2.1 -14.0°
